Regional Weather Roundup
Issued by NWS Albany, NY

Home | Current Version | Previous Version | Text Only | Print | Product List | Glossary On
Versions: 1 2 3 4 5 6 7 8 9 10 11 12 13 14 15 16 17 18 19 20 21 22 23 24 25 26 27 28
000
ASUS41 KALY 211610
RWRALY

NEW YORK STATE HOURLY WEATHER ROUNDUP
NATIONAL WEATHER SERVICE ALBANY NY
1200 PM EDT THU SEP 21 2017

NOTE: "FAIR" INDICATES FEW OR NO CLOUDS BELOW 12,000 FEET WITH NO
SIGNIFICANT WEATHER AND/OR NO OBSTRUCTIONS TO VISIBILITY.

NYZ032-033-038>043-046>054-057>066-NYZ062>081-082-084-211700-
EAST


CITY           SKY/WX    TMP DP  RH WIND       PRES   REMARKS
ALBANY         CLOUDY    73  63  70 NE6       30.08F
GLENS FALLS    MOSUNNY   74  62  66 NE10      30.08F
POUGHKEEPSIE   CLOUDY    78  63  59 N12       30.03F
NEWBURGH       MOSUNNY   77  66  69 N12G18    30.06F
MONTGOMERY     CLOUDY    76  64  66 NE9       30.05F
WHITE PLAINS   MOSUNNY   77  63  61 N12       30.02S
ISLIP          CLOUDY    74  64  71 N10G24    29.98S
NEW YORK CITY  CLOUDY    79  64  60 N13       30.00F
CENTRAL PARK   CLOUDY    79  64  60 MISG      30.04F
$$

NYZ005>009-017-018-044>046-055-056-211700-
CENTRAL


CITY           SKY/WX    TMP DP  RH WIND       PRES   REMARKS
FULTON         SUNNY     75  65  70 VRB3      30.11S
SYRACUSE       PTSUNNY   75  66  73 W3        30.09F
ROME           MOSUNNY   72  65  78 W7        30.10F
ELMIRA         PTSUNNY   72  66  81 CALM      30.12F
BINGHAMTON     SUNNY     72  63  73 CALM      30.12F
MONTICELLO     SUNNY     77  59  53 VRB5      30.10F
$$

NYZ026>034-041>043-087-211700-
NORTH


CITY           SKY/WX    TMP DP  RH WIND       PRES   REMARKS
WATERTOWN      SUNNY     75  65  70 NE12      30.12R
FORT DRUM      NOT AVBL
OGDENSBURG     FAIR      74  61  63 NE5       30.13F
MASSENA        SUNNY     72  58  61 NE9       30.15S
SARANAC LAKE   SUNNY     74  57  55 NE10      30.14F
PLATTSBURGH    SUNNY     72  57  59 NE8       30.13S
$$

NYZ001>004-010>016-019>021-085-211700-
WEST


CITY           SKY/WX    TMP DP  RH WIND       PRES   REMARKS
NIAGARA FALLS  SUNNY     80  62  54 E6        30.12F
BUFFALO        MOSUNNY   77  63  61 E6        30.12F
DUNKIRK        SUNNY     76  66  71 N3        30.13S
JAMESTOWN      SUNNY     73  62  68 NE5       30.17S
WELLSVILLE     SUNNY     73  63  70 N5        30.19S
ROCHESTER      MOSUNNY   73  67  81 SE3       30.14S
PENN YAN       PTSUNNY   70  62  76 CALM      30.15R
$$

             KEY
       WCI = WIND CHILL INDEX
       VSB = VISIBILITY
       HX  = HEAT INDEX
$$




USA.gov is the U.S. government's official web portal to all federal, state and local government web resources and services.